Auckland, New Zealand

6:03 PM NZST on April 24, 2017 (GMT +1200)
Auckland International

Weather History for NZAA - April, 2014

Change the Weather History Date:

Wednesday, April 9, 2014

  Actual Average Record
Temperature  
Mean Temperature 68 °F -  
Max Temperature 73 °F 67 °F 75 °F (1998)
Min Temperature 64 °F 54 °F 46 °F (2013)
Cooling Degree Days 4    
Growing Degree Days 18 (Base 50)    
Moisture  
Dew Point 63 °F    
Average Humidity 85    
Maximum Humidity 94    
Minimum Humidity 73    
Precipitation  
Precipitation 0.00 in - - ()
Sea Level Pressure  
Sea Level Pressure 29.88 in    
Wind  
Wind Speed 4 mph ()    
Max Wind Speed 10 mph    
Max Gust Speed -    
Visibility 6.2 miles    
Events Rain    
Averages and records for this station are not official NWS values.
T = Trace of Precipitation, MM = Missing Value Source: Averaged Metar Reports

Daily Weather History Graph

Daily Weather History Graph

Search for Another Location

Airport or City:

Trip Planner

Search our weather history database for the weather conditions in past years. The results will help you decide how hot, cold, wet, or windy it might be!

Date:

Astronomy

Apr. 09, 2014 Rise Set
Actual Time 6:40 AM NZST 6:03 PM NZST
Civil Twilight 6:14 AM NZST 6:29 PM NZST
Nautical Twilight 5:44 AM NZST 6:59 PM NZST
Astronomical Twilight 5:14 AM NZST 7:29 PM NZST
Moon 2:29 PM NZST (4/9) 12:37 AM NZST (4/9)
Length of Visible Light 12h 15m
Length of Day
11h 22m
Waxing Gibbous, 65% of the Moon is Illuminated
Apr 9
Waxing Gibbous
Apr 15
Full
Apr 22
Last Quarter
Apr 29
New
May 7
First Quarter

Hourly Weather History & Observations

Time (NZST) Temp. Dew Point Humidity Pressure Visibility Wind Dir Wind Speed Gust Speed Precip Events Conditions
12:00 AM 64.4 °F 62.6 °F 94% 29.86 in 6.2 mi NNW 2.3 mph - N/A   Mostly Cloudy
12:30 AM 64.4 °F 62.6 °F 94% 29.86 in 6.2 mi NNW 2.3 mph - N/A   Overcast
1:00 AM 64.4 °F 62.6 °F 94% 29.86 in 6.2 mi NW 4.6 mph - N/A   Overcast
1:30 AM 64.4 °F 62.6 °F 94% 29.86 in 6.2 mi NW 2.3 mph - N/A   Overcast
2:00 AM 64.4 °F 62.6 °F 94% 29.86 in 6.2 mi NW 2.3 mph - N/A   Overcast
2:30 AM 66.2 °F 62.6 °F 88% 29.86 in 6.2 mi NNW 4.6 mph - N/A   Mostly Cloudy
3:00 AM 66.2 °F 62.6 °F 88% 29.86 in 6.2 mi NW 4.6 mph - N/A   Overcast
3:30 AM 66.2 °F 62.6 °F 88% 29.86 in 6.2 mi NW 4.6 mph - N/A   Overcast
4:00 AM 66.2 °F 62.6 °F 88% 29.86 in 6.2 mi NNW 3.5 mph - N/A   Mostly Cloudy
4:30 AM 66.2 °F 62.6 °F 88% 29.86 in 6.2 mi NNW 3.5 mph - N/A Rain Light Rain Showers
5:00 AM 66.2 °F 62.6 °F 88% 29.86 in 6.2 mi North 1.2 mph - N/A   Overcast
5:30 AM 66.2 °F 62.6 °F 88% 29.86 in 6.2 mi North 2.3 mph - N/A   Overcast
6:00 AM 66.2 °F 62.6 °F 88% 29.86 in 6.2 mi North 2.3 mph - N/A   Overcast
6:30 AM 64.4 °F 62.6 °F 94% 29.86 in 6.2 mi North 2.3 mph - N/A   Overcast
7:00 AM 64.4 °F 62.6 °F 94% 29.86 in 6.2 mi North 2.3 mph - N/A   Overcast
7:30 AM 66.2 °F 62.6 °F 88% 29.89 in 6.2 mi NE 2.3 mph - N/A   Overcast
8:00 AM 66.2 °F 62.6 °F 88% 29.89 in 6.2 mi North 2.3 mph - N/A   Mostly Cloudy
8:30 AM 66.2 °F 62.6 °F 88% 29.89 in 6.2 mi NNW 3.5 mph - N/A   Overcast
9:00 AM 68.0 °F 62.6 °F 83% 29.89 in 6.2 mi NNW 2.3 mph - N/A   Overcast
9:30 AM 68.0 °F 62.6 °F 83% 29.89 in 6.2 mi NW 2.3 mph - N/A   Mostly Cloudy
10:00 AM 69.8 °F 64.4 °F 83% 29.89 in 6.2 mi SSW 3.5 mph - N/A   Mostly Cloudy
10:30 AM 69.8 °F 64.4 °F 83% 29.89 in 6.2 mi SSW 5.8 mph - N/A   Scattered Clouds
11:00 AM 71.6 °F 64.4 °F 78% 29.89 in 6.2 mi SSW 4.6 mph - N/A   Overcast
11:30 AM 71.6 °F 64.4 °F 78% 29.89 in 6.2 mi SSW 4.6 mph - N/A   Overcast
12:00 PM 73.4 °F 64.4 °F 73% 29.89 in 6.2 mi WSW 5.8 mph - N/A   Mostly Cloudy
12:30 PM 73.4 °F 64.4 °F 73% 29.89 in 6.2 mi SSW 5.8 mph - N/A   Partly Cloudy
1:00 PM 71.6 °F 64.4 °F 78% 29.89 in 6.2 mi SSW 6.9 mph - N/A   Partly Cloudy
1:30 PM 71.6 °F 64.4 °F 78% 29.86 in 6.2 mi SW 6.9 mph - N/A   Overcast
2:00 PM 71.6 °F 62.6 °F 73% 29.86 in 6.2 mi SSW 6.9 mph - N/A   Overcast
2:30 PM 71.6 °F 64.4 °F 78% 29.86 in 6.2 mi SSW 8.1 mph - N/A   Overcast
3:00 PM 69.8 °F 62.6 °F 78% 29.86 in 6.2 mi SSW 10.4 mph - N/A   Overcast
3:30 PM 71.6 °F 62.6 °F 73% 29.86 in 6.2 mi SW 9.2 mph - N/A   Overcast
4:00 PM 71.6 °F 62.6 °F 73% 29.86 in 6.2 mi SW 9.2 mph - N/A   Mostly Cloudy
4:30 PM 71.6 °F 62.6 °F 73% 29.86 in 6.2 mi SSW 9.2 mph - N/A   Unknown
5:00 PM 69.8 °F 62.6 °F 78% 29.86 in 6.2 mi SW 9.2 mph - N/A   Unknown
5:30 PM 69.8 °F 62.6 °F 78% 29.86 in 6.2 mi SSW 9.2 mph - N/A   Unknown
6:00 PM 68.0 °F 62.6 °F 83% 29.86 in 6.2 mi SW 10.4 mph - N/A   Mostly Cloudy
6:30 PM 68.0 °F 60.8 °F 78% 29.89 in 6.2 mi SW 8.1 mph - N/A   Mostly Cloudy
7:00 PM 66.2 °F 60.8 °F 83% 29.89 in 6.2 mi South 5.8 mph - N/A   Mostly Cloudy
7:30 PM 66.2 °F 60.8 °F 83% 29.89 in 6.2 mi South 4.6 mph - N/A   Mostly Cloudy
8:00 PM 66.2 °F 62.6 °F 88% 29.92 in 6.2 mi SSE 4.6 mph - N/A   Mostly Cloudy
8:30 PM 66.2 °F 62.6 °F 88% 29.92 in 6.2 mi SE 3.5 mph - N/A   Overcast
9:00 PM 66.2 °F 62.6 °F 88% 29.92 in 6.2 mi South 2.3 mph - N/A   Mostly Cloudy
9:30 PM 66.2 °F 62.6 °F 88% 29.95 in 6.2 mi SE 2.3 mph - N/A   Mostly Cloudy
10:00 PM 64.4 °F 62.6 °F 94% 29.95 in 6.2 mi SE 1.2 mph - N/A   Mostly Cloudy
10:30 PM 66.2 °F 62.6 °F 88% 29.95 in 6.2 mi ENE 1.2 mph - N/A   Overcast
11:00 PM 66.2 °F 62.6 °F 88% 29.95 in 6.2 mi NNE 2.3 mph - N/A   Overcast
11:30 PM 66.2 °F 62.6 °F 88% 29.95 in 6.2 mi Calm Calm - N/A   Overcast